Погода в Кличеве

Погода в Кличеве : погода сейчас, прогноз погоды и архив. Всё, что Вы хотите узнать о погоде в Кличеве!

Хотите узнать прогноз погоды в Кличеве? Тогда Вам сюда: Погода в Кличеве

Поиск расширенной информации на нашем сайте:

Полезная информация: Персональный сайт главная крупнопанельное строительство.

Другие новости

Новости СМИ2

Главная страница сайта

Новости сайта

02.10.2013

Напоминаем, что на нашем новом сайте вы можете получить высокодетализированные прогнозы погоды по пунктам России, СНГ и мира (включающие важные для авиации метеовеличины, такие как направление и скорость ветра, видимость, явления погоды, количество и форма облачности, нижняя и верхняя граница облачности), а также ознакомиться с разнообразными материалами по авиационной метеорологии и подборкой полезных ссылок на эту тему.

Сайт Метеоцентр.Азия посвящён разработке технологий оптимизации авиаметеорологического обслуживания, включая проектирование и перспективное создание нескольких автоматизированных авиаметеорологических систем:
- система выпуска высокодетальных прогностических карт явлений погоды для нижнего воздушного пространства по России и ближнему зарубежью;
- система верификации прогнозов TAF (выпускаемых синоптиками официальных АМСГ РФ и ближнего зарубежья) и AUTOTAF (выпускаемых сайтом Метеоцентр.Азия) - выявление ошибок, онлайн-сопоставление с фактической погодой METAR, автоматическое внесение коррективов в прогнозы при резком отклонении фактической погоды от прогноза, подсчёт оправдываемости прогнозов по элементам и в целом;
- система обработки, анализа и отображения авиаметеорологической информации для применения провайдерами метеорологической информации.

Рекомендуем: горящие туры в Италию цены в 2017 году на двоих все включено здесь

Погода в Кличеве - сегодня

Время (UTC), дата Ветер
(°,м/с) 
Видим.   Явления Облачность Т
(°С)
Тd
(°С)
f(%) Тe
(°С)
Pmin
(гПа)
dP
(гПа)
Po
(мм)
O2
(г/м3)
Тmin Tmax R s Состояние
почвы
03 24.04.17 тихо ()   10 км    ясно 
-3.8 -5.2 90 -4  1012.3  0.4  744  305           
06 24.04.17 270 (З) 10 км    ясно 
+3.6 -1.4 70 +4  1012.8  1.1  745  297  -4         
09 24.04.17 230 (ЮЗ) 10 км    8/8 750 м кучево-дожд. 
[Cb calv]
+8.7 -4.5 39 +8  1012.3  -0.2  745  291           
12 24.04.17 280 (З) 3{11}  10 км    8/8 900 м 
[Sc]
+11 -7.8 26 +11  1011.3  -0.8  745  289           
15 24.04.17 290 (З) 3{13}  10 км    8/8 900 м 
[Sc]
+9.9 -9.8 24 +9  1011.1  -0.3  744  290           
18 24.04.17 200 (Ю) 3{10}  10 км    8/8 750 м кучево-дожд. 
[Cb calv]
+4.5 -2.8 59 +3  1013.4  1.9  746  296    +11.2       
21 24.04.17 190 (Ю) 10 км    ясно 
+0.1 -1.8 87 +1  1014.4  0.7  746  301           
00 25.04.17 190 (Ю) 10 км    3/0 верхняя 
[Ci sp]
+0.9 -0.9 88 +2  1014.5  0.1  746  300           
03 25.04.17 190 (Ю) 4000 м  дымка  4/0 средняя, верхняя 
[Ac und|Ci sp]
-0.2 -1.5 91 1014.5  746  301           
06 25.04.17 220 (ЮЗ) 10 км    6/0 средняя 
[Ac trans]
+5.7 +0.3 68 +5  1014.6  0.5  747  295  -0.5         
09 25.04.17 200 (Ю) 5-10{10}  10 км    9/4 600 м средняя 
[Sc|Ac und]
+9.8 -1 47 +9  1013.7  -0.6  746  290           
12 25.04.17 260 (З) 6-10{11}  10 км    8/4 600 м средняя 
[Sc|Ac und]
+13 +0 41 +12  1011.5  -1.9  745  286           
15 25.04.17 190 (Ю) 6-10{13}  10 км    6/6 900 м 
[Sc]
+14.8 -0.5 35 +14  1009.4  -2  743  284           
18 25.04.17 170 (Ю) 4{12}  10 км    9/0 средняя 
[Ac und]
+13.1 +0.1 41 +13  1008.6  -0.9  743  285    +15       
21 25.04.17 170 (Ю) 5{11}  10 км    9/9 900 м 
[Sc]
+11.7 -0.2 44 +11  1007.3  -1.4  742  287           
00 26.04.17 190 (Ю) 7{10}  10 км    9/9 900 м 
[Sc]
+10.3 +4.7 68 +9  1006.8  -0.5  741  287           
03 26.04.17 190 (Ю) 10 км    9/9 900 м 
[Sc]
+10 +3.1 62 +9  1007.3  0.4  742  288           
06 26.04.17 200 (Ю) 10 км    10/0 средняя 
[Ac As]
+12.4 +3.9 56 +12  1007.3  0.2  742  285  +8.4         
09 26.04.17 320 (СЗ) 6{11}  10 км    10/10 840 м кучево-дожд. 
[Cb calv]
+8.2 +4.2 76 +6  1009.3  1.7  743  290           
12 26.04.17 360 (С) 3{11}  4000 м  слаб. ливневой дождь  10/10 420 м кучево-дожд. 
[Cb cap]
+5.4 +4 91 +4  1012.1  2.5  745  294           
18 26.04.17 030 (СВ) 4000 м  слаб. ливневой дождь  10/10 420 м кучево-дожд. 
[Cb cap]
+4.9 +4 94 +6  1013.8  0.6  746  295    +15.1     
21 26.04.17 тихо ()   4000 м  слаб. ливневой дождь  10/10 420 м кучево-дожд. 
[Cb cap]
+4.7 +4 95 +5  1014.7  0.9  747  295           
00 27.04.17 тихо ()   4000 м  дымка{ливн. осадки}  10/10 720 м кучево-дожд. 
[Cb calv]
+4.5 +3.9 96 +5  1014.2  -0.4  746  295           
03 27.04.17 050 (СВ) 4000 м  слаб. ливневой дождь  10/10 420 м кучево-дожд. 
[Cb cap]
+4.2 +3.6 96 +4  1013.3  -0.9  746  295         
06 27.04.17 040 (СВ) 4000 м  слаб. ливневой дождь  10/10 420 м кучево-дожд. 
[Cb cap]
+3.7 +3.3 97 +2  1013  -0.3  745  296  +3.7       
Время (UTC), дата Ветер
(°,м/с) 
Видим.   Явления Облачность Т
(°С)
Тd
(°С)
f(%) Тe
(°С)
Pmin
(гПа)
dP
(гПа)
Po
(мм)
O2
(г/м3)
Тmin Tmax R s Состояние
почвы

Для получения пояснительной информации подведите курсор к названию столбца.

ПОГОДА в Кличеве - архив

Всё, что Вы хотите узнать о погоде в Кличеве - удобно и подробно!

Выберите нужную дату (начиная с 1 января 2015* года) и нажмите кнопку "Найти".
Будут отображены архивные сводки погоды по пункту Кличев, начиная с указанной даты.


Отображать данные в формате CSV (для использования в таблицах Excel)


Внимание! Наш архив погоды предназначен исключительно для личного некоммерческого использования в познавательных целях. Если Вам необходимы официальные справки о состоянии погоды (для производственных, юридических, коммерческих и т.п. целей), обращайтесь в органы Росгидромета.

*Примечание: данная дата относится к архиву по метеостанциям СССР (Россия, СНГ, Балтия).
Архив по метеостанциям Зарубежной Европы и Азии (кроме Китая) хранится 10 дней, по другим регионам земного шара (Китай, Африка, Америка, Австралия, Океания) - 1 день.

Кличев - район местоположения метеостанции


Название, широта, долгота, высота метеостанции:
Кличев 53.5°ш. 29.3°д. 155 м над ур. моря [Беларусь]

Дополнительная информация

В oтличие oт бoльшинства пoгoдных сайтoв мы публикуем пoдрoбную метеoинфoрмацию в детальнoм прoфессиoнальнoм фoрмате.

Характеристики температуры и влажнoсти вoздуха измеряются на высoте 2 м в тени вдали oт зданий и деревьев.
Скoрoсть ветра измеряется на высoте 10 м (на урoвне рoста челoвека скoрoсть ветра ниже в 1.5-2 раза). Если метеoстанция нахoдится в гoрoде или в лесу, тo скoрoсть ветра занижена на 2-4 м/с пo сравнению с oткрытым местoм. Скoрoсть ветра над акватoриями крупных рек и oзёр, а также на вершинах хoлмoв на 2-5 м/с выше, чем в oбычных услoвиях.
Атмoсфернoе давление в разных тoчках местнoсти мoжет значительнo oтличаться oт давления на метеoстанции, в зависимoсти oт услoвий рельефа (при пoдъёме на 10 м давление пoнижается примернo на 1 мм рт.ст.).